Regional Weather Roundup
Issued by NWS

Home | Current Version | Previous Version | Text Only | Print | Product List | Glossary On
Versions: 1 2 3 4 5 6 7 8 9 10 11 12 13 14 15 16 17 18 19 20 21 22 23 24 25 26 27 28 29 30 31 32 33 34 35 36 37 38 39 40 41 42 43 44 45 46 47 48 49 50
000
ASUS43 KTOP 261608
RWRKS

WEATHER ROUNDUP FOR KANSAS
NATIONAL WEATHER SERVICE GOODLAND KS
1000 AM CST FRI DEC 26 2014

NOTE:  "FAIR" INDICATES FEW OR NO CLOUDS BELOW 12,000 FEET WITH NO
SIGNIFICANT WEATHER AND/OR OBSTRUCTIONS TO VISIBILITY.

KSZ001>006-013>018-027>032-041>047-261700-
NORTHWEST KANSAS

CITY           SKY/WX    TMP DP  RH WIND       PRES   REMARKS
GOODLAND       LGT SNOW  22  20  92 N12       29.97R VSB 1   WCI  10
HAYS           CLOUDY    28  18  64 N16G22    29.97F WCI  17
HILL CITY      CLOUDY    28  21  75 NE17G26   30.00F WCI  16
RUSSELL        CLOUDY    30  26  85 N15       29.98R WCI  19
$$

KSZ061>065-074>080-084>089-261700-
SOUTHWEST KANSAS

CITY           SKY/WX    TMP DP  RH WIND       PRES   REMARKS
DODGE CITY     CLOUDY    29  24  82 N17       29.95R WCI  17
ELKHART          N/A     26  18  72 N14         N/A  WCI  14
GARDEN CITY    CLOUDY    27  23  85 N17       29.95R WCI  14
GREAT BEND     CLOUDY    30  25  80 NE15      29.97F WCI  19
LIBERAL        CLOUDY    30  21  69 N17       29.96R WCI  18
PRATT          CLOUDY    32  30  93 N16       29.94S WCI  21
$$

KSZ066>073-081>083-090>101-261700-
SOUTHEAST KANSAS

CITY           SKY/WX    TMP DP  RH WIND       PRES   REMARKS
CHANUTE        PTSUNNY   50  44  80 S15G23    29.95R
COFFEYVILLE    MOSUNNY   52  44  74 S17       29.96R
HUTCHINSON     CLOUDY    35  30  82 N12G18    29.95R WCI  27
MEDICINE LODGE   N/A     35  31  85 N14       29.93S WCI  26
NEWTON         CLOUDY    34  27  75 N14       29.95R WCI  24
PARSONS        MOSUNNY   52  45  77 S12       29.97R
WICHITA INTL   PTSUNNY   35  30  82 N13       29.94R WCI  26
WICHITA JABRA  CLOUDY    35  30  82 N10       29.93R WCI  27
WICHITA MCCONL PTSUNNY   36  31  81 N9        29.94R
WINFIELD       CLOUDY    48  42  80 S9        29.93R
$$

KSZ007>012-019>026-033>040-048>060-102>105-261700-
NORTHEAST KANSAS

CITY           SKY/WX    TMP DP  RH WIND       PRES   REMARKS
CONCORDIA      CLOUDY    31  28  89 N17G25    29.98R WCI  19
EMPORIA        CLOUDY    35  30  82 NW7       29.94R
LAWRENCE       CLOUDY    46  36  68 CALM      29.94R
MANHATTAN      CLOUDY    35  32  88 NE12      29.97R FOG     WCI  27
MARYSVILLE     CLOUDY    32  32 100 N12       29.99R WCI  23
OLATHE IND     CLOUDY    46  40  79 S13       29.95R
OLATHE EXE     CLOUDY    47  41  80 S13       29.94R
SALINA         CLOUDY    35  30  82 N15       29.99R WCI  25
TOPEKA BILLARD CLOUDY    38  32  79 N8        29.96R
TOPEKA FORBES  CLOUDY    39  31  72 NW8       29.94R
$$


USA.gov is the U.S. government's official web portal to all federal, state and local government web resources and services.